Location: Aragüita
(10.0436°N, 67.8028°W)
Time: 14:52:10
(UTC+00:00)

Cosmos 1655 Rocket - Pass Details

Date: 14 April 2024
Orbit: 971 x 1004 km, 83.0° (Epoch: 27 May)

Event Time Altitude Azimuth Distance (km) Brightness Sun altitude
Rises 08:28:30 0° 175° (S) 3,670 6.9 -27.8°
Reaches altitude 10° 08:31:03 10° 172° (S) 2,719 6.2 -27.2°
Maximum altitude 08:37:10 62° 93° (E) 1,087 4.4 -25.8°
Drops below altitude 10° 08:43:16 10° 13° (NNE) 2,707 6.7 -24.3°
Sets 08:45:47 0° 10° (N) 3,654 7.3 -23.7°
